AirNav   Pilot Hours Calculator
 
 1164 users online  

SC82 Oakhill Airpark
Williamson, South Carolina, USA

GOING TO WILLIAMSON?


FAA INFORMATION EFFECTIVE 02 JANUARY 2020

Location

FAA Identifier: SC82
Lat/Long: 34-35-07.8600N 082-21-08.2200W
34-35.131000N 082-21.137000W
34.5855167,-82.3522833
(estimated)
Elevation: 837 ft. / 255 m (estimated)
Variation: 04W (1990)
From city: 8 miles E of WILLIAMSON, SC
Time zone: UTC -5 (UTC -4 during Daylight Saving Time)
Zip code: 29697

Airport Operations

Airport use: Private use. Permission required prior to landing
Activation date: 04/1993
Control tower: no
ARTCC: ATLANTA CENTER
FSS: ANDERSON FLIGHT SERVICE STATION
Attendance: UNATNDD
Wind indicator: yes
Segmented circle: no
Lights: ACTVT LIRL RY 10/28 122.9.

Airport Communications

WX AWOS-3 at GYH (10 nm N): 127.325 (864-277-5674)
WX ASOS at GMU (16 nm N): 127.075 (864-239-0014)
WX ASOS at AND (18 nm W): 120.675 (864-226-9522)
WX ASOS at GSP (20 nm N): 134.25 (864-879-0614)

Nearby radio navigation aids

VOR radial/distance  VOR name  Freq  Var
GRDr335/22.3GREENWOOD VORTAC115.5001W
ELWr065/23.6ELECTRIC CITY VORTAC108.6000E
SPAr220/34.1SPARTANBURG VORTAC115.7002W

 
NDB name  Hdg/Dist  Freq  Var  ID
DYANA149/7.833804WGY --. -.--
JUDKY186/11.752105WGM --. --
CORONACA334/23.823907WGIW --. .. .--
FAIRMONT229/26.224805WFRT ..-. .-. -
UNION COUNTY266/35.532606WUOT ..- --- -
ENOREE302/39.127807WEOE . --- .

Airport Services

Runway Information

Runway 10/28

Dimensions: 2400 x 100 ft. / 732 x 30 m
Surface: turf, in good condition
Runway edge lights: low intensity
RUNWAY 10  RUNWAY 28
Traffic pattern: leftleft
Obstructions: 50 ft. trees, 1000 ft. from runway50 ft. trees, 800 ft. from runway

Airport Ownership and Management from official FAA records

Ownership: Privately-owned
Owner: OAKHILL AIRPARK PROPERTY OWNERS
2 AERONCA ROAD
BELTON, SC 29627
Phone 864-299-6018
Manager: MICHAEL JODOIN
21 AERONCA ROAD
BELTON, SC 29627
Phone (864) 419-8565

Airport Operational Statistics

Aircraft based on the field: 15
Single engine airplanes: 13
Multi engine airplanes: 1
Helicopters: 1
    

Additional Remarks

FOR CD CTC ATLANTA ARTCC AT 770-210-7692.

Instrument Procedures

There are no published instrument procedures at SC82.

Some nearby airports with instrument procedures:

KGYH - Donaldson Field Airport (10 nm N)
KGMU - Greenville Downtown Airport (16 nm N)
KAND - Anderson Regional Airport (18 nm W)
KGSP - Greenville Spartanburg International Airport (20 nm N)
KLUX - Laurens County Airport (21 nm E)
 
Loc | Ops | Rwys | IFR | FBO | Links
Com | Nav | Svcs | Stats | Notes
Aerial photo
WARNING: Photo may not be current or correct
Aerial photo of SC82 (Oakhill Airpark)
Photo by Chris Goodwin
Photo taken 16-Sep-2016
looking east

Do you have a better or more recent aerial photo of Oakhill Airpark that you would like to share? If so, please send us your photo.

 
Sectional chart

 
Airport distance calculator
Flying to Oakhill Airpark? Find the distance to fly.

From to SC82

Sunrise and sunset
Times for 18-Jan-2020
 Local
(UTC-5)
 Zulu
(UTC)
Morning civil twilight07:0912:09
Sunrise07:3612:36
Sunset17:4422:44
Evening civil twilight18:1123:11

Current date and time
Zulu (UTC)  18-Jan-2020 21:20:49
Local (UTC-5)  18-Jan-2020 16:20:49
 
METAR
KGYH 
10nm N 
182047Z 00000KT 2SM -RA BR SCT008 OVC020 03/02 A3023
KGMU 
16nm N 
182053Z 24003KT 2 1/2SM RA BR SCT006 OVC018 04/03 A3022 RMK AO2 RAE07B13 SLP239 P0003 60014 T00390028 56029
KAND 
19nm W 
182056Z AUTO VRB03KT 10SM -RA FEW007 OVC037 04/02 A3024 RMK AO2 RAB06 SLP242 P0003 60011 T00390022 58029
KGSP 
20nm N 
182053Z 22004KT 5SM -RA BR BKN004 OVC022 03/01 A3023 RMK AO2 SLP240 P0001 60012 T00280006 58026
KLUX 
21nm E 
182055Z AUTO 00000KT 10SM BKN026 03/02 A3023 RMK AO2
TAF
KGMU 
16nm N 
181739Z 1818/1918 02004KT 4SM -DZ BR BKN004 OVC006 FM182100 23006KT 3SM -RA BR OVC005 TEMPO 1822/1902 2SM RA BKN005 OVC010 FM190400 23007KT 1 1/2SM BR VCSH OVC003 FM190600 23008KT 5SM BR OVC005 FM190900 28006KT P6SM BKN035
KAND 
19nm W 
181739Z 1818/1918 02006KT P6SM -DZ SCT011 OVC020 FM181900 02005KT 3SM -RA BR BKN011 OVC020 TEMPO 1819/1821 2SM RA OVC005 FM190000 VRB04KT 4SM -RA BR OVC004 FM190700 24008KT P6SM OVC022 FM191200 26009KT P6SM SCT250
NOTAMs
Click for the latest NOTAMs
NOTAMs are issued by the DoD/FAA and will open in a separate window not controlled by AirNav.

 

 
 

Would you like to see your business listed on this page?

 If your business provides an interesting product or service to pilots, flight crews, aircraft, or users of the Oakhill Airpark, you should consider listing it here.  To start the listing process, click on the button below
 
Add a business
 

Other Pages about Oakhill Airpark

Update a link
 
Copyright © AirNav, LLC. All rights reserved. Privacy Policy  Contact